Regional Weather Roundup
Issued by NWS

Current Version | Previous Version | Text Only | Print | Product List | Glossary On
Versions: 1 2 3 4 5 6 7 8 9 10 11 12 13 14 15 16 17 18 19 20 21 22 23 24 25 26 27 28 29 30 31 32 33 34 35 36 37 38 39 40 41 42 43 44 45 46 47 48 49 50
000
ASUS45 KABQ 210210
RWRNM
WEATHER ROUNDUP FOR NEW MEXICO
NATIONAL WEATHER SERVICE ALBUQUERQUE NM
800 PM MDT WED AUG 20 2014

NOTE: "FAIR" MEANS FEW OR NO CLOUDS BELOW 12,000 FEET AGL WITH NO
       SIGNIFICANT WEATHER OR OBSTRUCTIONS TO VISION.

      THIS PRODUCT IS RELEASED AS TWO VERSIONS.  ONE VERSION NEAR
      THE TOP OF THE HOUR CONTAINING PRELIMINARY DATA FROM ALBUQUERQUE
      AND OTHER STATIONS.  A FINAL VERSION WITH ADDITIONAL DATA IS
      ISSUED ABOUT 10 MINUTES AFTER THE HOUR.

NMZ501-503-504-510>518-210300-
NORTHWEST PLATEAU/NORTHCENTRAL MOUNTAINS

CITY           SKY/WX    TMP DP  RH WIND       PRES   REMARKS
FARMINGTON     CLEAR     78  37  22 W9        30.03S
LOS ALAMOS     PTCLDY    72  40  31 NW8       30.16R
SANTA FE       PTCLDY    73  42  32 W5        30.08R
TAOS           CLEAR     72  36  26 NW8       30.15R
ANGEL FIRE     FAIR      61  40  44 CALM      30.23S

$$
NMZ402-403-502-505>509-210300-
WESTCENTRAL MOUNTAINS/SOUTHWEST MOUNTAINS

CITY           SKY/WX    TMP DP  RH WIND       PRES   REMARKS
GALLUP         PTCLDY    72  39  30 W3        30.13S
SILVER CITY    CLEAR     75  50  41 W18       30.10R

$$
NMZ407-409-411-412-210300-
SOUTHERN DESERTS

CITY           SKY/WX    TMP DP  RH WIND       PRES   REMARKS
LORDSBURG      FAIR      77  46  33 NW9       30.02S
DEMING         CLEAR     82  44  26 W13       30.00R
LAS CRUCES     CLEAR     83  39  20 W13       29.99R
HOLLOMAN AFB   PTCLDY    86  51  29 S3        29.93R
ALAMOGORDO     PTCLDY    82  50  32 CALM      29.95S
T OR C         MOCLDY    83  46  27 CALM      29.99R

$$
NMZ519>523-210300-
CENTRAL VALLEYS/CENTRAL HIGHLANDS

CITY           SKY/WX    TMP DP  RH WIND       PRES   REMARKS
ALBUQUERQUE    PTCLDY    81  45  28 W7        30.02S
DOUBLE EAGLE   PTCLDY    77  43  29 NW5       30.06S
MORIARTY ARPT  FAIR      71  42  35 W6        30.10R
CLINES CORNERS MOCLDY    70  43  37 W10       30.13R
BELEN          FAIR      78  48  34 CALM      30.02R
SOCORRO        FAIR      81  46  29 CALM      29.99S

$$
NMZ524>526-539-540-210300-
SOUTHCENTRAL MOUNTAINS

CITY           SKY/WX    TMP DP  RH WIND       PRES   REMARKS
RUIDOSO        PTCLDY    66  55  68 SW5       30.18R

$$
NMZ527>531-210300-
NORTHEAST HIGHLANDS/NORTHEAST PLAINS

CITY           SKY/WX    TMP DP  RH WIND       PRES   REMARKS
LAS VEGAS      CLEAR     67  50  54 W6        30.10S
RATON          MOCLDY    69  52  54 N10       30.04R
CLAYTON        CLEAR     82  47  29 S12       29.93R

$$
NMZ532>537-210300-
EASTCENTRAL PLAINS

CITY           SKY/WX    TMP DP  RH WIND       PRES   REMARKS
TUCUMCARI      CLEAR     87  52  29 SW14      29.88R
CANNON AFB     MOCLDY    78  58  49 S9        29.95S
CLOVIS AIRPORT   N/A     77  63  61 S5        29.98R

$$
NMZ028-029-538-210300-
SOUTHEAST PLAINS

CITY           SKY/WX    TMP DP  RH WIND       PRES   REMARKS
ROSWELL        MOCLDY    85  57  38 N6        29.90R
ARTESIA        LGT RAIN  84  59  42 N13       29.90S
CARLSBAD       CLOUDY    92  51  24 S9        29.87R
HOBBS          PTCLDY    82  61  47 S25G31    29.95R


$$



USA.gov is the U.S. government's official web portal to all federal, state and local government web resources and services.